TimeEDT,TemperatureF,Dew PointF,Humidity,Sea Level PressureIn,VisibilityMPH,Wind Direction,Wind SpeedMPH,Gust SpeedMPH,PrecipitationIn,Events,Conditions,WindDirDegrees,DateUTC
12:38 AM,39.2,39.2,100,29.87,3.0,NE,4.6,-,N/A,,Clear,40,2013-03-24 04:38:00
12:53 AM,41.0,39.9,96,29.92,4.0,NE,5.8,-,N/A,,Clear,40,2013-03-24 04:53:00
1:53 AM,42.1,39.9,92,29.94,5.0,Calm,Calm,-,N/A,,Partly Cloudy,0,2013-03-24 05:53:00
2:53 AM,44.1,41.0,89,29.94,6.0,Calm,Calm,-,N/A,,Overcast,0,2013-03-24 06:53:00
3:53 AM,43.0,42.1,97,29.90,5.0,Calm,Calm,-,0.00,Rain,Light Rain,0,2013-03-24 07:53:00
4:53 AM,43.0,41.0,93,29.85,3.0,NE,9.2,-,0.03,Rain,Rain,50,2013-03-24 08:53:00
5:53 AM,42.1,39.9,92,29.83,3.0,NE,11.5,-,0.13,Rain,Rain,50,2013-03-24 09:53:00
6:53 AM,41.0,39.9,96,29.82,5.0,East,5.8,-,0.12,Rain,Light Rain,80,2013-03-24 10:53:00
7:01 AM,41.0,39.2,93,29.76,4.0,ENE,8.1,-,0.00,Rain,Light Rain,70,2013-03-24 11:01:00
7:41 AM,41.0,39.2,93,29.71,3.0,East,9.2,17.3,0.00,Rain,Light Rain,80,2013-03-24 11:41:00
7:51 AM,41.0,39.2,93,29.73,4.0,East,11.5,18.4,0.00,Rain,Light Rain,80,2013-03-24 11:51:00
7:53 AM,41.0,39.9,96,29.78,4.0,East,8.1,18.4,0.00,Rain,Light Rain,90,2013-03-24 11:53:00
8:18 AM,41.0,39.2,93,29.68,2.5,East,10.4,20.7,0.00,Rain,Light Rain,80,2013-03-24 12:18:00
8:29 AM,41.0,39.2,93,29.66,3.0,East,10.4,24.2,0.00,Rain,Light Rain,80,2013-03-24 12:29:00
8:53 AM,41.0,39.0,93,29.72,3.0,East,9.2,18.4,0.00,Rain,Light Rain,80,2013-03-24 12:53:00
9:07 AM,41.0,39.2,93,29.66,2.5,ENE,10.4,20.7,0.01,Rain,Rain,70,2013-03-24 13:07:00
9:20 AM,42.8,39.2,87,29.73,1.8,North,11.5,-,0.06,Rain,Heavy Rain,350,2013-03-24 13:20:00
9:53 AM,41.0,39.9,96,29.79,1.8,North,13.8,-,0.23,Rain,Heavy Rain,350,2013-03-24 13:53:00
10:07 AM,41.0,39.2,93,29.70,2.0,NE,17.3,-,0.05,Rain,Rain,40,2013-03-24 14:07:00
10:13 AM,41.0,39.2,93,29.71,3.0,NNE,10.4,-,0.05,Rain,Light Rain,20,2013-03-24 14:13:00
10:53 AM,42.1,39.9,92,29.72,4.0,NE,16.1,21.9,0.05,Rain,Light Rain,40,2013-03-24 14:53:00
11:44 AM,41.0,39.2,93,29.64,2.5,NE,17.3,24.2,0.01,Rain,Light Rain,40,2013-03-24 15:44:00
11:53 AM,41.0,39.0,93,29.69,2.5,NE,16.1,23.0,0.01,Rain,Rain,40,2013-03-24 15:53:00
12:21 PM,41.0,39.2,93,29.63,3.0,NE,15.0,21.9,0.03,Rain,Light Rain,50,2013-03-24 16:21:00
12:53 PM,41.0,39.0,93,29.68,4.0,NE,13.8,19.6,0.03,Rain,Light Rain,40,2013-03-24 16:53:00
1:21 PM,41.0,39.2,93,29.63,2.5,NNE,11.5,-,0.00,Rain,Light Rain,30,2013-03-24 17:21:00
1:32 PM,41.0,39.2,93,29.62,3.0,NNE,11.5,18.4,0.00,Rain,Light Rain,20,2013-03-24 17:32:00
1:53 PM,41.0,39.9,96,29.68,3.0,NNE,10.4,-,0.00,Rain,Light Rain,20,2013-03-24 17:53:00
2:02 PM,41.0,39.2,93,29.63,2.5,NNE,9.2,-,0.00,Rain,Light Rain,20,2013-03-24 18:02:00
2:44 PM,42.8,39.2,87,29.61,3.0,NNE,11.5,-,0.00,Rain,Light Rain,20,2013-03-24 18:44:00
2:53 PM,42.1,39.9,92,29.64,4.0,NNE,11.5,-,0.00,Rain,Light Rain,30,2013-03-24 18:53:00
3:53 PM,42.1,39.0,89,29.64,10.0,North,10.4,-,0.00,,Overcast,10,2013-03-24 19:53:00
4:01 PM,42.8,39.2,87,29.59,10.0,NNE,11.5,-,N/A,,Overcast,30,2013-03-24 20:01:00
4:10 PM,42.8,39.2,87,29.58,9.0,NNE,10.4,-,N/A,,Overcast,20,2013-03-24 20:10:00
4:53 PM,41.0,39.0,93,29.61,6.0,North,12.7,24.2,N/A,,Overcast,10,2013-03-24 20:53:00
5:29 PM,41.0,39.2,93,29.57,10.0,NNE,8.1,-,N/A,,Overcast,30,2013-03-24 21:29:00
5:53 PM,41.0,37.9,89,29.61,10.0,NE,11.5,-,N/A,,Overcast,40,2013-03-24 21:53:00
6:53 PM,41.0,37.0,86,29.65,10.0,NE,3.5,-,N/A,,Overcast,40,2013-03-24 22:53:00
7:53 PM,39.9,37.0,89,29.63,10.0,NE,6.9,-,N/A,,Overcast,40,2013-03-24 23:53:00
8:27 PM,39.2,37.4,93,29.62,6.0,North,4.6,-,N/A,,Overcast,350,2013-03-25 00:27:00
8:53 PM,39.9,37.9,93,29.68,5.0,Variable,3.5,-,N/A,,Overcast,0,2013-03-25 00:53:00
9:16 PM,39.2,37.4,93,29.60,4.0,ENE,6.9,-,N/A,,Overcast,60,2013-03-25 01:16:00
9:28 PM,39.2,37.4,93,29.61,5.0,NE,4.6,-,N/A,,Overcast,50,2013-03-25 01:28:00
9:53 PM,39.0,37.9,96,29.66,7.0,ENE,4.6,-,N/A,,Overcast,60,2013-03-25 01:53:00
10:08 PM,39.2,37.4,93,29.60,8.0,ENE,4.6,-,N/A,,Overcast,60,2013-03-25 02:08:00
10:26 PM,39.2,37.4,93,29.60,8.0,Calm,Calm,-,N/A,,Overcast,0,2013-03-25 02:26:00
10:53 PM,39.0,37.9,96,29.65,6.0,Calm,Calm,-,0.00,Rain,Light Rain,0,2013-03-25 02:53:00
11:53 PM,39.0,37.9,96,29.65,6.0,Calm,Calm,-,0.00,Rain,Light Rain,0,2013-03-25 03:53:00